Torna al catalogo

HAIKOU

AttivoComunicazioniSSO
NORAD 63987·PAYLOAD·🇨🇳 China
Questo nome del satellite non è ancora stato confermato da fonti ufficiali.

Lanciato May 14, 2025 da Jiuquan Satellite Launch Center

Loading…

Prossimi Passaggi (prossime 24 ore)

TLE

AggiornatoSource: Space-Track

Epoca: Sep 14, 2026, 12:53 UTC

1 63987U 25100F   26257.53695877  .00010559  00000-0  47425-3 0  9998
2 63987  97.3561 328.2680 0007640  12.2505 347.8915 15.21314843 74210

Traccia HAIKOU in tempo reale con AllMySat

Download on the App Store